Orbital Elements at Epoch 2459000.5 (2020-May-31.0) TDB
Reference: JPL 14 (heliocentric ecliptic J2000)
Element | Value | Uncertainty (1-sigma) | Units |
e | .03829394430845565 | 4.592e-08 | |
a | 2.761856238812057 | 2.1002e-08 | au |
q | 2.656093869815027 | 1.3241e-07 | au |
i | 3.526811468502477 | 7.7664e-06 | deg |
node | 356.8602719928461 | 7.9573e-05 | deg |
peri | 95.15914235343901 | 0.00013679 | deg |
M | 327.6928517426318 | 0.00010873 | deg |
tp | 2459150.951372483323 (2020-Oct-28.45137248) | 0.00050629 | TDB |
period | 1676.486381977199 4.59 | 1.9123e-05 5.236e-08 | d yr |
n | .2147348191253581 | 2.4494e-09 | deg/d |
Q | 2.867618607809086 | 2.1807e-08 | au |
|
| | Orbit Determination Parameters
Additional Information
|